Tracking 19476 objects as of 17-Jan-2019
HD Live streaming from Space Station
objects crossing your sky now

KANOPUS-V-IK

Track KANOPUS-V-IK now!
10-day predictions


NORAD ID: 42825
Int'l Code: 2017-042A
Perigee: 514.7 km
Apogee: 516.7 km
Inclination: 97.4 °
Period: 94.8 minutes
Semi major axis: 6886 km
RCS: Unknown
Launch date: July 14, 2017
Source: Commonwealth of Independent States (former USSR) (CIS)
Launch site: TYURATAM MISSILE AND SPACE COMPLEX (TTMTR)
aabbcc
Your satellite tracking list
Your tracking list is empty




NASA's NSSDC Master Catalog

Two Line Element Set (TLE):
1 42825U 17042A   19017.31737668  .00000053  00000-0  57189-5 0  9997
2 42825  97.4490 287.5990 0001458  94.2117  52.2160 15.19103638 83800
Source of the keplerian elements: AFSPC